Wetterdaten: Freitag, 03.07.2015
Datum Zeit Auen-Temp. Temp gefhlt Luftfeuchte Luftdruck Regen Wind Richtung Richtung Taupunkt Windben
03.07.2015 00:00 17,3 C 17,0 C 79 % 1026,8 hPa 0,0 mm 0,0 km/h (0 Bft) NO 45 13,6 C 0,0 km/h (0 Bft)
03.07.2015 00:05 17,2 C 17,0 C 79 % 1026,8 hPa 0,0 mm 0,0 km/h (0 Bft) NO 45 13,5 C 0,0 km/h (0 Bft)
03.07.2015 00:10 17,0 C 16,8 C 79 % 1026,8 hPa 0,0 mm 0,0 km/h (0 Bft) O-NO 67 13,3 C 0,0 km/h (0 Bft)
03.07.2015 00:15 16,8 C 16,7 C 79 % 1026,8 hPa 0,0 mm 0,0 km/h (0 Bft) SO 135 13,1 C 0,0 km/h (0 Bft)
03.07.2015 00:20 17,0 C 16,8 C 80 % 1026,8 hPa 0,0 mm 0,0 km/h (0 Bft) N-NW 337 13,5 C 0,0 km/h (0 Bft)
03.07.2015 00:25 16,9 C 16,7 C 80 % 1026,8 hPa 0,0 mm 0,0 km/h (0 Bft) N-NW 337 13,4 C 0,0 km/h (0 Bft)
03.07.2015 00:30 16,7 C 16,5 C 80 % 1026,8 hPa 0,0 mm 0,0 km/h (0 Bft) N-NW 337 13,2 C 0,0 km/h (0 Bft)
03.07.2015 00:35 16,5 C 16,3 C 79 % 1026,7 hPa 0,0 mm 0,0 km/h (0 Bft) N-NW 337 12,8 C 0,0 km/h (0 Bft)
03.07.2015 00:40 16,8 C 16,5 C 81 % 1026,7 hPa 0,0 mm 0,5 km/h (0 Bft) S 180 13,5 C 9,8 km/h (2 Bft)
03.07.2015 00:45 17,1 C 16,8 C 81 % 1026,7 hPa 0,0 mm 2,6 km/h (1 Bft) NW 315 13,8 C 6,2 km/h (2 Bft)
03.07.2015 00:50 16,8 C 16,7 C 80 % 1026,7 hPa 0,0 mm 2,3 km/h (1 Bft) O-NO 67 13,3 C 0,0 km/h (0 Bft)
03.07.2015 00:55 16,6 C 16,5 C 80 % 1026,7 hPa 0,0 mm 0,5 km/h (0 Bft) O-NO 67 13,1 C 0,0 km/h (0 Bft)
03.07.2015 01:00 16,3 C 16,2 C 80 % 1026,7 hPa 0,0 mm 0,0 km/h (0 Bft) N-NO 22 12,8 C 0,0 km/h (0 Bft)
03.07.2015 01:05 16,6 C 16,4 C 81 % 1026,7 hPa 0,0 mm 0,0 km/h (0 Bft) NO 45 13,3 C 0,0 km/h (0 Bft)
03.07.2015 01:08 16,3 C 16,2 C 80 % 1026,7 hPa 0,0 mm 0,0 km/h (0 Bft) N-NO 22 12,8 C 0,0 km/h (0 Bft)
03.07.2015 01:11 16,3 C 16,2 C 80 % 1026,7 hPa 0,0 mm 0,0 km/h (0 Bft) N-NO 22 12,8 C 0,0 km/h (0 Bft)
03.07.2015 01:15 16,4 C 16,2 C 80 % 1026,6 hPa 0,0 mm 0,0 km/h (0 Bft) N-NO 22 12,9 C 0,0 km/h (0 Bft)
03.07.2015 01:20 16,2 C 16,0 C 80 % 1026,6 hPa 0,0 mm 0,0 km/h (0 Bft) O-NO 67 12,7 C 0,0 km/h (0 Bft)
03.07.2015 01:25 16,1 C 15,9 C 80 % 1026,6 hPa 0,0 mm 0,0 km/h (0 Bft) N-NO 22 12,6 C 0,0 km/h (0 Bft)
03.07.2015 01:30 16,1 C 15,9 C 80 % 1026,6 hPa 0,0 mm 0,0 km/h (0 Bft) NO 45 12,6 C 0,0 km/h (0 Bft)
03.07.2015 01:35 16,0 C 15,8 C 80 % 1026,6 hPa 0,0 mm 0,0 km/h (0 Bft) O-NO 67 12,5 C 0,0 km/h (0 Bft)
03.07.2015 01:40 16,0 C 15,8 C 81 % 1026,6 hPa 0,0 mm 0,0 km/h (0 Bft) NW 315 12,7 C 0,0 km/h (0 Bft)
03.07.2015 01:45 16,1 C 15,8 C 81 % 1026,6 hPa 0,0 mm 0,0 km/h (0 Bft) O-NO 67 12,8 C 0,0 km/h (0 Bft)
03.07.2015 01:50 16,0 C 15,8 C 81 % 1026,6 hPa 0,0 mm 0,0 km/h (0 Bft) O-NO 67 12,7 C 0,0 km/h (0 Bft)
03.07.2015 01:55 16,1 C 15,8 C 82 % 1026,6 hPa 0,0 mm 0,0 km/h (0 Bft) O-NO 67 13,0 C 0,0 km/h (0 Bft)
03.07.2015 02:00 16,1 C 15,8 C 82 % 1026,6 hPa 0,0 mm 0,0 km/h (0 Bft) O-NO 67 13,0 C 0,0 km/h (0 Bft)
03.07.2015 02:05 15,7 C 15,5 C 82 % 1026,6 hPa 0,0 mm 0,0 km/h (0 Bft) N-NO 22 12,6 C 0,0 km/h (0 Bft)
03.07.2015 02:10 15,9 C 15,6 C 83 % 1026,6 hPa 0,0 mm 0,0 km/h (0 Bft) O-NO 67 13,0 C 0,0 km/h (0 Bft)
03.07.2015 02:15 15,6 C 15,4 C 83 % 1026,6 hPa 0,0 mm 0,0 km/h (0 Bft) O 90 12,7 C 0,0 km/h (0 Bft)
03.07.2015 02:20 15,6 C 15,4 C 83 % 1026,6 hPa 0,0 mm 0,0 km/h (0 Bft) O-NO 67 12,7 C 0,0 km/h (0 Bft)
03.07.2015 02:25 15,4 C 15,2 C 83 % 1026,6 hPa 0,0 mm 0,0 km/h (0 Bft) N-NO 22 12,5 C 0,0 km/h (0 Bft)
03.07.2015 02:30 15,3 C 15,1 C 83 % 1026,6 hPa 0,0 mm 0,0 km/h (0 Bft) SO 135 12,4 C 0,0 km/h (0 Bft)
03.07.2015 02:35 15,4 C 15,2 C 83 % 1026,8 hPa 0,0 mm 0,0 km/h (0 Bft) N-NO 22 12,5 C 0,0 km/h (0 Bft)
03.07.2015 02:40 15,3 C 15,1 C 83 % 1026,8 hPa 0,0 mm 0,0 km/h (0 Bft) N-NO 22 12,4 C 0,0 km/h (0 Bft)
03.07.2015 02:45 15,1 C 14,9 C 82 % 1026,8 hPa 0,0 mm 0,0 km/h (0 Bft) O-NO 67 12,0 C 0,0 km/h (0 Bft)
03.07.2015 02:50 15,2 C 14,9 C 83 % 1026,8 hPa 0,0 mm 0,0 km/h (0 Bft) O-NO 67 12,3 C 0,0 km/h (0 Bft)
03.07.2015 02:55 15,4 C 15,1 C 83 % 1026,6 hPa 0,0 mm 0,0 km/h (0 Bft) S-SO 157 12,5 C 0,0 km/h (0 Bft)
03.07.2015 03:00 15,7 C 15,3 C 83 % 1026,6 hPa 0,0 mm 0,0 km/h (0 Bft) S 180 12,8 C 0,0 km/h (0 Bft)
03.07.2015 03:05 15,8 C 15,4 C 83 % 1026,6 hPa 0,0 mm 0,0 km/h (0 Bft) S-SO 157 12,9 C 0,0 km/h (0 Bft)
03.07.2015 03:10 15,8 C 15,4 C 83 % 1026,6 hPa 0,0 mm 0,0 km/h (0 Bft) NW 315 12,9 C 0,0 km/h (0 Bft)
03.07.2015 03:15 15,2 C 15,0 C 82 % 1026,6 hPa 0,0 mm 0,0 km/h (0 Bft) NW 315 12,1 C 0,0 km/h (0 Bft)
03.07.2015 03:20 15,0 C 14,8 C 82 % 1026,6 hPa 0,0 mm 0,0 km/h (0 Bft) NW 315 12,0 C 0,0 km/h (0 Bft)
03.07.2015 03:25 14,9 C 14,7 C 83 % 1026,6 hPa 0,0 mm 0,0 km/h (0 Bft) NW 315 12,0 C 0,0 km/h (0 Bft)
03.07.2015 03:30 14,9 C 14,7 C 83 % 1026,6 hPa 0,0 mm 0,0 km/h (0 Bft) NW 315 12,0 C 0,0 km/h (0 Bft)
03.07.2015 03:35 14,7 C 14,5 C 83 % 1026,5 hPa 0,0 mm 0,0 km/h (0 Bft) NW 315 11,8 C 0,0 km/h (0 Bft)
03.07.2015 03:40 15,1 C 14,8 C 84 % 1026,5 hPa 0,0 mm 0,0 km/h (0 Bft) SO 135 12,4 C 0,0 km/h (0 Bft)
03.07.2015 03:45 14,9 C 14,7 C 84 % 1026,5 hPa 0,0 mm 0,0 km/h (0 Bft) NW 315 12,2 C 0,0 km/h (0 Bft)
03.07.2015 03:50 14,7 C 14,5 C 83 % 1026,5 hPa 0,0 mm 0,0 km/h (0 Bft) NO 45 11,8 C 0,0 km/h (0 Bft)
03.07.2015 03:55 14,8 C 14,6 C 83 % 1026,3 hPa 0,0 mm 0,0 km/h (0 Bft) O-NO 67 11,9 C 0,0 km/h (0 Bft)
03.07.2015 04:00 14,7 C 14,6 C 83 % 1026,3 hPa 0,0 mm 0,0 km/h (0 Bft) O 90 11,8 C 0,0 km/h (0 Bft)
03.07.2015 04:05 14,9 C 14,7 C 83 % 1026,3 hPa 0,0 mm 0,0 km/h (0 Bft) N-NW 337 12,0 C 0,0 km/h (0 Bft)
03.07.2015 04:10 14,8 C 14,7 C 83 % 1026,3 hPa 0,0 mm 0,0 km/h (0 Bft) N 360 11,9 C 0,0 km/h (0 Bft)
03.07.2015 04:15 14,8 C 14,7 C 83 % 1026,4 hPa 0,0 mm 0,0 km/h (0 Bft) N-NW 337 11,9 C 0,0 km/h (0 Bft)
03.07.2015 04:20 14,8 C 14,7 C 82 % 1026,4 hPa 0,0 mm 0,0 km/h (0 Bft) N-NW 337 11,8 C 0,0 km/h (0 Bft)
03.07.2015 04:25 14,9 C 14,8 C 82 % 1026,4 hPa 0,0 mm 0,0 km/h (0 Bft) W-NW 292 11,9 C 0,0 km/h (0 Bft)
03.07.2015 04:30 15,0 C 14,9 C 81 % 1026,4 hPa 0,0 mm 0,0 km/h (0 Bft) NW 315 11,8 C 0,0 km/h (0 Bft)
03.07.2015 04:35 15,1 C 15,0 C 81 % 1026,6 hPa 0,0 mm 0,0 km/h (0 Bft) NO 45 11,9 C 0,0 km/h (0 Bft)
03.07.2015 04:40 15,0 C 14,9 C 81 % 1026,6 hPa 0,0 mm 0,0 km/h (0 Bft) NO 45 11,8 C 0,0 km/h (0 Bft)
03.07.2015 04:45 14,9 C 14,9 C 81 % 1026,6 hPa 0,0 mm 0,0 km/h (0 Bft) O-NO 67 11,7 C 0,0 km/h (0 Bft)
03.07.2015 04:50 15,1 C 15,0 C 81 % 1026,6 hPa 0,0 mm 0,0 km/h (0 Bft) O-NO 67 11,9 C 0,0 km/h (0 Bft)
03.07.2015 04:55 15,3 C 15,2 C 80 % 1026,5 hPa 0,0 mm 0,0 km/h (0 Bft) O-NO 67 11,9 C 0,0 km/h (0 Bft)
03.07.2015 05:00 15,1 C 15,0 C 79 % 1026,5 hPa 0,0 mm 0,0 km/h (0 Bft) N 360 11,5 C 0,0 km/h (0 Bft)
03.07.2015 05:05 15,4 C 15,2 C 80 % 1026,5 hPa 0,0 mm 0,0 km/h (0 Bft) O-SO 112 12,0 C 0,0 km/h (0 Bft)
03.07.2015 05:10 15,1 C 15,0 C 79 % 1026,5 hPa 0,0 mm 0,0 km/h (0 Bft) N-NW 337 11,5 C 0,0 km/h (0 Bft)
03.07.2015 05:15 15,0 C 15,0 C 79 % 1026,6 hPa 0,0 mm 0,0 km/h (0 Bft) W-SW 247 11,4 C 0,0 km/h (0 Bft)
03.07.2015 05:20 15,2 C 15,1 C 79 % 1026,6 hPa 0,0 mm 0,0 km/h (0 Bft) N-NW 337 11,6 C 0,0 km/h (0 Bft)
03.07.2015 05:25 15,1 C 15,1 C 79 % 1026,6 hPa 0,0 mm 0,0 km/h (0 Bft) W-SW 247 11,5 C 0,0 km/h (0 Bft)
03.07.2015 05:30 15,3 C 15,2 C 79 % 1026,6 hPa 0,0 mm 0,0 km/h (0 Bft) NW 315 11,7 C 0,0 km/h (0 Bft)
03.07.2015 05:35 15,3 C 15,3 C 79 % 1026,7 hPa 0,0 mm 0,0 km/h (0 Bft) N-NW 337 11,7 C 0,0 km/h (0 Bft)
03.07.2015 05:40 15,4 C 15,4 C 79 % 1026,7 hPa 0,0 mm 0,0 km/h (0 Bft) NW 315 11,8 C 0,0 km/h (0 Bft)
03.07.2015 05:45 15,5 C 15,6 C 79 % 1026,7 hPa 0,0 mm 0,0 km/h (0 Bft) S-SO 157 11,9 C 0,0 km/h (0 Bft)
03.07.2015 05:50 15,9 C 16,0 C 79 % 1026,7 hPa 0,0 mm 0,0 km/h (0 Bft) N-NO 22 12,3 C 0,0 km/h (0 Bft)
03.07.2015 05:55 16,0 C 16,2 C 78 % 1026,8 hPa 0,0 mm 0,0 km/h (0 Bft) N-NO 22 12,2 C 0,0 km/h (0 Bft)
03.07.2015 06:00 16,1 C 16,5 C 78 % 1026,8 hPa 0,0 mm 0,0 km/h (0 Bft) NO 45 12,3 C 0,0 km/h (0 Bft)
03.07.2015 06:05 16,2 C 16,6 C 78 % 1026,8 hPa 0,0 mm 0,0 km/h (0 Bft) N-NO 22 12,4 C 0,0 km/h (0 Bft)
03.07.2015 06:10 16,5 C 17,7 C 76 % 1026,8 hPa 0,0 mm 0,0 km/h (0 Bft) NO 45 12,3 C 0,0 km/h (0 Bft)
03.07.2015 06:15 16,7 C 18,5 C 75 % 1027,1 hPa 0,0 mm 0,0 km/h (0 Bft) N-NO 22 12,2 C 0,0 km/h (0 Bft)
03.07.2015 06:20 17,0 C 19,4 C 75 % 1027,1 hPa 0,0 mm 0,0 km/h (0 Bft) N-NO 22 12,5 C 0,0 km/h (0 Bft)
03.07.2015 06:25 17,1 C 19,4 C 74 % 1027,1 hPa 0,0 mm 0,0 km/h (0 Bft) O-NO 67 12,4 C 0,0 km/h (0 Bft)
03.07.2015 06:30 17,1 C 18,7 C 75 % 1027,1 hPa 0,0 mm 0,0 km/h (0 Bft) O-NO 67 12,6 C 0,0 km/h (0 Bft)
03.07.2015 06:35 17,2 C 18,6 C 74 % 1027,2 hPa 0,0 mm 0,0 km/h (0 Bft) O-NO 67 12,5 C 0,0 km/h (0 Bft)
03.07.2015 06:40 17,5 C 19,9 C 74 % 1027,2 hPa 0,0 mm 0,0 km/h (0 Bft) O-SO 112 12,8 C 0,0 km/h (0 Bft)
03.07.2015 06:45 17,9 C 20,7 C 73 % 1027,2 hPa 0,0 mm 0,0 km/h (0 Bft) N-NO 22 13,0 C 0,0 km/h (0 Bft)
03.07.2015 06:50 18,4 C 22,1 C 73 % 1027,2 hPa 0,0 mm 0,0 km/h (0 Bft) N-NO 22 13,5 C 0,0 km/h (0 Bft)
03.07.2015 06:55 18,7 C 22,4 C 73 % 1027,2 hPa 0,0 mm 0,0 km/h (0 Bft) N-NO 22 13,8 C 0,0 km/h (0 Bft)
03.07.2015 07:00 19,3 C 23,4 C 71 % 1027,2 hPa 0,0 mm 0,0 km/h (0 Bft) N-NO 22 13,9 C 0,0 km/h (0 Bft)
03.07.2015 07:05 19,3 C 24,1 C 71 % 1027,2 hPa 0,0 mm 0,0 km/h (0 Bft) N-NO 22 13,9 C 0,0 km/h (0 Bft)
03.07.2015 07:10 19,5 C 25,0 C 70 % 1027,2 hPa 0,0 mm 0,0 km/h (0 Bft) O-NO 67 13,9 C 0,0 km/h (0 Bft)
03.07.2015 07:12 19,5 C 25,0 C 70 % 1027,2 hPa 0,0 mm 0,0 km/h (0 Bft) O-NO 67 13,9 C 0,0 km/h (0 Bft)
03.07.2015 07:15 19,5 C 25,1 C 70 % 1027,4 hPa 0,0 mm 0,0 km/h (0 Bft) O-NO 67 13,9 C 0,0 km/h (0 Bft)
03.07.2015 07:20 20,2 C 25,9 C 69 % 1027,4 hPa 0,0 mm 0,0 km/h (0 Bft) NO 45 14,3 C 0,0 km/h (0 Bft)
03.07.2015 07:25 20,5 C 26,5 C 68 % 1027,4 hPa 0,0 mm 0,0 km/h (0 Bft) O-NO 67 14,4 C 0,0 km/h (0 Bft)
03.07.2015 07:30 20,4 C 27,0 C 68 % 1027,4 hPa 0,0 mm 0,0 km/h (0 Bft) NO 45 14,3 C 0,0 km/h (0 Bft)
03.07.2015 07:35 20,5 C 27,0 C 68 % 1027,5 hPa 0,0 mm 0,0 km/h (0 Bft) N-NO 22 14,4 C 0,0 km/h (0 Bft)
03.07.2015 07:40 21,6 C 27,7 C 68 % 1027,5 hPa 0,0 mm 0,0 km/h (0 Bft) N-NW 337 15,4 C 0,0 km/h (0 Bft)
03.07.2015 07:45 22,2 C 28,6 C 67 % 1027,5 hPa 0,0 mm 0,0 km/h (0 Bft) N-NW 337 15,8 C 0,0 km/h (0 Bft)
03.07.2015 07:50 22,8 C 29,7 C 66 % 1027,5 hPa 0,0 mm 0,0 km/h (0 Bft) N-NO 22 16,1 C 0,0 km/h (0 Bft)
03.07.2015 07:55 22,4 C 30,2 C 66 % 1027,4 hPa 0,0 mm 0,0 km/h (0 Bft) N-NW 337 15,7 C 0,0 km/h (0 Bft)
03.07.2015 08:00 22,9 C 30,6 C 66 % 1027,4 hPa 0,0 mm 0,0 km/h (0 Bft) N-NO 22 16,2 C 0,0 km/h (0 Bft)
03.07.2015 08:05 22,8 C 31,1 C 66 % 1027,4 hPa 0,0 mm 0,0 km/h (0 Bft) N-NO 22 16,1 C 0,0 km/h (0 Bft)
03.07.2015 08:10 22,9 C 31,6 C 66 % 1027,4 hPa 0,0 mm 0,0 km/h (0 Bft) N-NO 22 16,2 C 0,0 km/h (0 Bft)
03.07.2015 08:15 22,9 C 31,6 C 65 % 1027,5 hPa 0,0 mm 0,0 km/h (0 Bft) O-NO 67 16,0 C 0,0 km/h (0 Bft)
03.07.2015 08:20 23,4 C 31,7 C 65 % 1027,5 hPa 0,0 mm 0,0 km/h (0 Bft) O-NO 67 16,4 C 0,0 km/h (0 Bft)
03.07.2015 08:25 24,3 C 32,1 C 64 % 1027,5 hPa 0,0 mm 0,0 km/h (0 Bft) NW 315 17,0 C 0,0 km/h (0 Bft)
03.07.2015 08:30 24,9 C 33,4 C 64 % 1027,5 hPa 0,0 mm 0,0 km/h (0 Bft) N-NW 337 17,6 C 0,0 km/h (0 Bft)
03.07.2015 08:35 24,8 C 33,6 C 63 % 1027,6 hPa 0,0 mm 0,0 km/h (0 Bft) O-NO 67 17,3 C 0,0 km/h (0 Bft)
03.07.2015 08:40 25,2 C 33,3 C 63 % 1027,6 hPa 0,0 mm 0,0 km/h (0 Bft) NO 45 17,6 C 0,0 km/h (0 Bft)
03.07.2015 08:45 24,3 C 32,2 C 64 % 1027,6 hPa 0,0 mm 0,0 km/h (0 Bft) NO 45 17,0 C 0,0 km/h (0 Bft)
03.07.2015 08:50 24,2 C 30,9 C 65 % 1027,6 hPa 0,0 mm 0,0 km/h (0 Bft) O-NO 67 17,2 C 0,0 km/h (0 Bft)
03.07.2015 08:55 24,3 C 30,7 C 65 % 1028,1 hPa 0,0 mm 0,0 km/h (0 Bft) NO 45 17,3 C 0,0 km/h (0 Bft)
03.07.2015 09:00 25,8 C 31,9 C 65 % 1028,1 hPa 0,0 mm 0,0 km/h (0 Bft) NO 45 18,7 C 0,0 km/h (0 Bft)
03.07.2015 09:05 26,5 C 33,0 C 62 % 1028,1 hPa 0,0 mm 0,0 km/h (0 Bft) O-NO 67 18,6 C 0,0 km/h (0 Bft)
03.07.2015 09:10 26,0 C 32,7 C 62 % 1028,1 hPa 0,0 mm 0,0 km/h (0 Bft) NW 315 18,1 C 0,0 km/h (0 Bft)
03.07.2015 09:15 26,4 C 32,3 C 61 % 1028,2 hPa 0,0 mm 0,0 km/h (0 Bft) N-NW 337 18,3 C 0,0 km/h (0 Bft)
03.07.2015 09:20 25,9 C 31,4 C 62 % 1028,2 hPa 0,0 mm 0,0 km/h (0 Bft) NO 45 18,0 C 0,0 km/h (0 Bft)
03.07.2015 09:25 25,7 C 30,8 C 61 % 1028,2 hPa 0,0 mm 0,0 km/h (0 Bft) NO 45 17,6 C 0,0 km/h (0 Bft)
03.07.2015 09:30 26,0 C 30,8 C 61 % 1028,2 hPa 0,0 mm 0,0 km/h (0 Bft) NO 45 17,9 C 0,0 km/h (0 Bft)
03.07.2015 09:35 26,1 C 30,7 C 62 % 1028,6 hPa 0,0 mm 0,0 km/h (0 Bft) NO 45 18,2 C 0,0 km/h (0 Bft)
03.07.2015 09:40 26,2 C 29,9 C 60 % 1028,6 hPa 0,0 mm 2,1 km/h (1 Bft) NW 315 17,8 C 6,7 km/h (2 Bft)
03.07.2015 09:45 26,1 C 29,1 C 60 % 1028,6 hPa 0,0 mm 3,6 km/h (1 Bft) NW 315 17,7 C 9,1 km/h (2 Bft)
03.07.2015 09:50 25,6 C 27,9 C 60 % 1028,6 hPa 0,0 mm 3,6 km/h (1 Bft) W 270 17,2 C 6,2 km/h (2 Bft)
03.07.2015 09:55 24,8 C 26,8 C 59 % 1029,4 hPa 0,0 mm 4,7 km/h (1 Bft) W-NW 292 16,2 C 5,2 km/h (1 Bft)
03.07.2015 10:00 23,0 C 23,0 C 63 % 1029,4 hPa 0,0 mm 5,2 km/h (1 Bft) W-NW 292 15,6 C 13,5 km/h (3 Bft)
03.07.2015 10:05 21,7 C 21,4 C 68 % 1029,4 hPa 0,7 mm 5,7 km/h (1 Bft) SO 135 15,5 C 12,4 km/h (3 Bft)
03.07.2015 10:10 20,8 C 20,3 C 72 % 1029,4 hPa 1,4 mm 4,9 km/h (1 Bft) SO 135 15,6 C 14,2 km/h (3 Bft)
03.07.2015 10:15 20,5 C 20,0 C 73 % 1029,6 hPa 0,0 mm 2,8 km/h (1 Bft) S 180 15,5 C 3,4 km/h (1 Bft)
03.07.2015 10:20 19,9 C 19,5 C 77 % 1029,6 hPa 0,0 mm 1,3 km/h (1 Bft) S-SW 202 15,7 C 5,4 km/h (1 Bft)
03.07.2015 10:25 19,6 C 19,2 C 80 % 1029,6 hPa 0,7 mm 2,6 km/h (1 Bft) S-SO 157 16,1 C 4,7 km/h (1 Bft)
03.07.2015 10:30 19,2 C 18,9 C 82 % 1029,6 hPa 0,0 mm 3,4 km/h (1 Bft) S 180 16,0 C 4,9 km/h (1 Bft)
03.07.2015 10:35 19,1 C 18,8 C 82 % 1030,2 hPa 0,0 mm 2,3 km/h (1 Bft) O-SO 112 16,0 C 0,0 km/h (0 Bft)
03.07.2015 10:40 19,0 C 18,7 C 83 % 1030,2 hPa 0,0 mm 2,1 km/h (1 Bft) SO 135 16,0 C 5,2 km/h (1 Bft)
03.07.2015 10:45 19,0 C 18,8 C 84 % 1030,2 hPa 0,0 mm 2,1 km/h (1 Bft) S 180 16,2 C 6,7 km/h (2 Bft)
03.07.2015 10:50 19,1 C 18,9 C 85 % 1030,2 hPa 0,0 mm 5,4 km/h (1 Bft) S 180 16,5 C 7,3 km/h (2 Bft)
03.07.2015 10:55 19,0 C 18,8 C 85 % 1030,7 hPa 0,0 mm 7,5 km/h (2 Bft) S 180 16,4 C 10,9 km/h (2 Bft)
03.07.2015 11:00 18,8 C 18,6 C 86 % 1030,7 hPa 0,0 mm 7,8 km/h (2 Bft) S 180 16,4 C 8,5 km/h (2 Bft)
03.07.2015 11:05 18,8 C 18,6 C 86 % 1030,7 hPa 0,0 mm 6,7 km/h (2 Bft) O-SO 112 16,4 C 4,1 km/h (1 Bft)
03.07.2015 11:10 18,5 C 18,3 C 87 % 1030,7 hPa 0,0 mm 3,9 km/h (1 Bft) S-SO 157 16,3 C 0,0 km/h (0 Bft)
03.07.2015 11:15 18,5 C 18,3 C 87 % 1029,6 hPa 0,7 mm 2,1 km/h (1 Bft) S 180 16,3 C 5,2 km/h (1 Bft)
03.07.2015 11:20 18,4 C 18,2 C 87 % 1029,6 hPa 0,0 mm 1,3 km/h (1 Bft) O-SO 112 16,2 C 4,7 km/h (1 Bft)
03.07.2015 11:25 18,4 C 18,2 C 87 % 1029,6 hPa 0,0 mm 1,8 km/h (1 Bft) W 270 16,2 C 0,0 km/h (0 Bft)
03.07.2015 11:30 18,5 C 18,4 C 83 % 1029,6 hPa 0,0 mm 1,6 km/h (1 Bft) NW 315 15,6 C 0,0 km/h (0 Bft)
03.07.2015 11:35 18,6 C 18,5 C 83 % 1029,4 hPa 0,0 mm 2,3 km/h (1 Bft) W 270 15,7 C 6,2 km/h (2 Bft)
03.07.2015 11:40 18,7 C 18,6 C 83 % 1029,4 hPa 0,0 mm 2,3 km/h (1 Bft) O-SO 112 15,8 C 5,2 km/h (1 Bft)
03.07.2015 11:45 18,7 C 18,7 C 83 % 1029,4 hPa 0,0 mm 2,1 km/h (1 Bft) NO 45 15,8 C 3,4 km/h (1 Bft)
03.07.2015 11:50 18,8 C 18,7 C 83 % 1029,4 hPa 0,0 mm 2,3 km/h (1 Bft) O-SO 112 15,8 C 2,8 km/h (1 Bft)
03.07.2015 11:55 18,8 C 18,8 C 83 % 1029,1 hPa 0,0 mm 1,3 km/h (1 Bft) O-SO 112 15,8 C 0,0 km/h (0 Bft)
03.07.2015 12:00 18,8 C 18,7 C 86 % 1029,1 hPa 0,0 mm 1,0 km/h (0 Bft) N-NO 22 16,4 C 0,0 km/h (0 Bft)
03.07.2015 12:05 18,7 C 18,8 C 83 % 1029,1 hPa 0,0 mm 0,8 km/h (0 Bft) N-NO 22 15,8 C 3,4 km/h (1 Bft)
03.07.2015 12:10 18,9 C 19,1 C 83 % 1029,1 hPa 0,0 mm 1,8 km/h (1 Bft) O-NO 67 15,9 C 0,0 km/h (0 Bft)
03.07.2015 12:15 19,1 C 19,3 C 82 % 1029,1 hPa 0,0 mm 2,1 km/h (1 Bft) S 180 16,0 C 4,7 km/h (1 Bft)
03.07.2015 12:20 19,3 C 19,5 C 82 % 1029,1 hPa 0,0 mm 2,1 km/h (1 Bft) W-SW 247 16,1 C 13,7 km/h (3 Bft)
03.07.2015 12:25 19,5 C 19,8 C 81 % 1029,1 hPa 0,0 mm 3,9 km/h (1 Bft) W-SW 247 16,1 C 9,3 km/h (2 Bft)
03.07.2015 12:30 19,6 C 20,2 C 81 % 1029,1 hPa 0,0 mm 4,7 km/h (1 Bft) O-SO 112 16,2 C 17,3 km/h (3 Bft)
03.07.2015 12:35 19,6 C 20,4 C 81 % 1028,4 hPa 0,0 mm 3,6 km/h (1 Bft) N-NW 337 16,2 C 6,5 km/h (2 Bft)
03.07.2015 12:40 19,9 C 20,9 C 80 % 1028,4 hPa 0,0 mm 3,9 km/h (1 Bft) W 270 16,3 C 7,5 km/h (2 Bft)
03.07.2015 12:45 20,1 C 21,2 C 79 % 1028,4 hPa 0,0 mm 4,7 km/h (1 Bft) W-SW 247 16,3 C 6,5 km/h (2 Bft)
03.07.2015 12:50 20,2 C 21,6 C 79 % 1028,4 hPa 0,0 mm 3,4 km/h (1 Bft) SO 135 16,4 C 0,0 km/h (0 Bft)
03.07.2015 12:55 20,2 C 21,8 C 79 % 1028,3 hPa 0,0 mm 1,3 km/h (1 Bft) SO 135 16,4 C 3,1 km/h (1 Bft)
03.07.2015 13:00 20,7 C 22,0 C 77 % 1028,3 hPa 0,0 mm 4,7 km/h (1 Bft) S 180 16,5 C 18,1 km/h (3 Bft)
03.07.2015 13:05 20,8 C 22,0 C 76 % 1028,3 hPa 0,0 mm 7,8 km/h (2 Bft) SW 225 16,4 C 12,9 km/h (3 Bft)
03.07.2015 13:10 21,1 C 22,2 C 73 % 1028,3 hPa 0,0 mm 11,7 km/h (2 Bft) W-SW 247 16,1 C 24,9 km/h (4 Bft)
03.07.2015 13:13 21,3 C 22,2 C 72 % 1028,4 hPa 0,0 mm 14,0 km/h (3 Bft) S 180 16,0 C 23,3 km/h (4 Bft)
03.07.2015 13:15 21,3 C 22,2 C 72 % 1028,4 hPa 0,0 mm 14,0 km/h (3 Bft) S 180 16,0 C 23,3 km/h (4 Bft)
03.07.2015 13:20 21,6 C 22,6 C 69 % 1028,4 hPa 0,0 mm 11,9 km/h (2 Bft) S 180 15,7 C 25,6 km/h (4 Bft)
03.07.2015 13:25 21,8 C 22,9 C 69 % 1028,4 hPa 0,0 mm 8,3 km/h (2 Bft) S 180 15,9 C 4,9 km/h (1 Bft)
03.07.2015 13:30 22,1 C 23,5 C 68 % 1028,4 hPa 0,0 mm 4,7 km/h (1 Bft) S-SO 157 15,9 C 0,0 km/h (0 Bft)
03.07.2015 13:35 21,8 C 23,9 C 72 % 1028,9 hPa 0,0 mm 2,6 km/h (1 Bft) NW 315 16,5 C 2,6 km/h (1 Bft)
03.07.2015 13:40 21,9 C 24,7 C 73 % 1028,9 hPa 0,0 mm 0,0 km/h (0 Bft) NO 45 16,8 C 0,0 km/h (0 Bft)
03.07.2015 13:45 22,5 C 26,0 C 72 % 1028,9 hPa 0,0 mm 0,0 km/h (0 Bft) NO 45 17,2 C 0,0 km/h (0 Bft)
03.07.2015 13:50 23,4 C 27,9 C 69 % 1028,9 hPa 0,0 mm 0,0 km/h (0 Bft) N-NW 337 17,4 C 0,0 km/h (0 Bft)
03.07.2015 13:55 23,9 C 28,9 C 67 % 1028,8 hPa 0,0 mm 0,0 km/h (0 Bft) NO 45 17,4 C 0,0 km/h (0 Bft)
03.07.2015 14:00 24,4 C 30,2 C 64 % 1028,8 hPa 0,0 mm 0,0 km/h (0 Bft) W-NW 292 17,1 C 0,0 km/h (0 Bft)
03.07.2015 14:05 24,6 C 30,7 C 64 % 1028,8 hPa 0,0 mm 0,0 km/h (0 Bft) N 360 17,3 C 0,0 km/h (0 Bft)
03.07.2015 14:10 25,4 C 31,3 C 65 % 1028,8 hPa 0,0 mm 1,3 km/h (1 Bft) NW 315 18,3 C 5,2 km/h (1 Bft)
03.07.2015 14:15 25,8 C 31,4 C 63 % 1028,8 hPa 0,0 mm 2,6 km/h (1 Bft) W 270 18,2 C 6,5 km/h (2 Bft)
03.07.2015 14:20 26,3 C 31,8 C 60 % 1028,8 hPa 0,0 mm 3,6 km/h (1 Bft) W 270 17,9 C 5,4 km/h (1 Bft)
03.07.2015 14:25 26,7 C 32,2 C 59 % 1028,8 hPa 0,0 mm 4,4 km/h (1 Bft) W-NW 292 18,0 C 4,7 km/h (1 Bft)
03.07.2015 14:30 27,6 C 33,2 C 59 % 1028,8 hPa 0,0 mm 3,6 km/h (1 Bft) W 270 18,8 C 7,0 km/h (2 Bft)
03.07.2015 14:35 27,5 C 33,5 C 57 % 1028,8 hPa 0,0 mm 2,8 km/h (1 Bft) N-NW 337 18,2 C 0,0 km/h (0 Bft)
03.07.2015 14:40 27,7 C 33,7 C 58 % 1028,8 hPa 0,0 mm 1,8 km/h (1 Bft) SW 225 18,7 C 0,0 km/h (0 Bft)
03.07.2015 14:45 28,0 C 34,0 C 56 % 1028,8 hPa 0,0 mm 1,0 km/h (0 Bft) O-NO 67 18,4 C 3,4 km/h (1 Bft)
03.07.2015 14:50 28,3 C 34,3 C 56 % 1028,8 hPa 0,0 mm 2,1 km/h (1 Bft) N-NO 22 18,7 C 0,0 km/h (0 Bft)
03.07.2015 14:55 28,7 C 34,8 C 56 % 1028,5 hPa 0,0 mm 1,8 km/h (1 Bft) NW 315 19,0 C 5,4 km/h (1 Bft)
03.07.2015 15:00 29,1 C 35,0 C 52 % 1028,5 hPa 0,0 mm 1,8 km/h (1 Bft) N-NO 22 18,2 C 6,0 km/h (2 Bft)
03.07.2015 15:05 29,1 C 34,9 C 52 % 1028,5 hPa 0,0 mm 2,1 km/h (1 Bft) W-NW 292 18,2 C 3,6 km/h (1 Bft)
03.07.2015 15:10 29,3 C 34,6 C 52 % 1028,5 hPa 0,0 mm 1,8 km/h (1 Bft) NW 315 18,4 C 3,6 km/h (1 Bft)
03.07.2015 15:15 29,4 C 34,7 C 51 % 1028,5 hPa 0,0 mm 2,3 km/h (1 Bft) O-SO 112 18,2 C 3,1 km/h (1 Bft)
03.07.2015 15:20 29,1 C 34,8 C 50 % 1028,5 hPa 0,0 mm 3,6 km/h (1 Bft) O 90 17,6 C 3,4 km/h (1 Bft)
03.07.2015 15:25 29,0 C 34,8 C 48 % 1028,5 hPa 0,0 mm 3,9 km/h (1 Bft) NO 45 16,9 C 5,4 km/h (1 Bft)
03.07.2015 15:30 29,2 C 34,9 C 48 % 1028,5 hPa 0,0 mm 2,8 km/h (1 Bft) SO 135 17,0 C 3,1 km/h (1 Bft)
03.07.2015 15:35 29,5 C 35,8 C 49 % 1028,4 hPa 0,0 mm 1,8 km/h (1 Bft) N-NO 22 17,6 C 3,6 km/h (1 Bft)
03.07.2015 15:40 29,7 C 35,8 C 47 % 1028,4 hPa 0,0 mm 2,6 km/h (1 Bft) NW 315 17,2 C 11,9 km/h (2 Bft)
03.07.2015 15:45 29,6 C 35,2 C 45 % 1028,4 hPa 0,0 mm 4,7 km/h (1 Bft) N-NO 22 16,4 C 7,8 km/h (2 Bft)
03.07.2015 15:50 29,4 C 34,6 C 46 % 1028,4 hPa 0,0 mm 6,2 km/h (2 Bft) N-NO 22 16,5 C 4,9 km/h (1 Bft)
03.07.2015 15:55 29,7 C 35,0 C 44 % 1028,2 hPa 0,0 mm 4,4 km/h (1 Bft) W-NW 292 16,1 C 3,6 km/h (1 Bft)
03.07.2015 16:00 29,6 C 35,6 C 43 % 1028,2 hPa 0,0 mm 2,3 km/h (1 Bft) O-NO 67 15,7 C 3,4 km/h (1 Bft)
03.07.2015 16:05 29,6 C 35,8 C 44 % 1028,2 hPa 0,0 mm 2,1 km/h (1 Bft) O-NO 67 16,0 C 0,0 km/h (0 Bft)
03.07.2015 16:10 29,3 C 35,8 C 45 % 1028,2 hPa 0,0 mm 1,3 km/h (1 Bft) N-NW 337 16,1 C 3,6 km/h (1 Bft)
03.07.2015 16:15 29,3 C 35,7 C 45 % 1028,2 hPa 0,0 mm 3,4 km/h (1 Bft) N-NW 337 16,1 C 9,1 km/h (2 Bft)
03.07.2015 16:20 29,2 C 35,7 C 47 % 1028,2 hPa 0,0 mm 4,9 km/h (1 Bft) N-NO 22 16,7 C 4,4 km/h (1 Bft)
03.07.2015 16:25 28,9 C 35,0 C 50 % 1028,2 hPa 0,0 mm 5,2 km/h (1 Bft) O-NO 67 17,4 C 6,7 km/h (2 Bft)
03.07.2015 16:30 28,6 C 34,2 C 49 % 1028,2 hPa 0,0 mm 6,5 km/h (2 Bft) NO 45 16,8 C 6,5 km/h (2 Bft)
03.07.2015 16:35 28,6 C 34,0 C 50 % 1027,9 hPa 0,0 mm 7,5 km/h (2 Bft) N 360 17,1 C 9,8 km/h (2 Bft)
03.07.2015 16:40 28,4 C 32,8 C 50 % 1027,9 hPa 0,0 mm 8,3 km/h (2 Bft) NO 45 17,0 C 11,4 km/h (2 Bft)
03.07.2015 16:45 28,3 C 32,1 C 50 % 1027,9 hPa 0,0 mm 8,5 km/h (2 Bft) N-NO 22 16,9 C 10,9 km/h (2 Bft)
03.07.2015 16:50 28,1 C 31,9 C 50 % 1027,9 hPa 0,0 mm 7,3 km/h (2 Bft) O-NO 67 16,7 C 4,4 km/h (1 Bft)
03.07.2015 16:55 28,0 C 32,0 C 51 % 1028,0 hPa 0,0 mm 6,0 km/h (2 Bft) N-NO 22 16,9 C 12,7 km/h (3 Bft)
03.07.2015 17:00 28,0 C 32,3 C 50 % 1028,0 hPa 0,0 mm 6,0 km/h (2 Bft) N-NO 22 16,6 C 14,5 km/h (3 Bft)
03.07.2015 17:05 27,9 C 32,0 C 51 % 1028,0 hPa 0,0 mm 7,0 km/h (2 Bft) N-NO 22 16,8 C 7,8 km/h (2 Bft)
03.07.2015 17:10 27,8 C 30,7 C 52 % 1028,0 hPa 0,0 mm 6,7 km/h (2 Bft) N-NW 337 17,0 C 7,8 km/h (2 Bft)
03.07.2015 17:15 27,8 C 30,1 C 50 % 1028,0 hPa 0,0 mm 6,7 km/h (2 Bft) N-NW 337 16,4 C 5,7 km/h (1 Bft)
03.07.2015 17:20 27,8 C 29,7 C 53 % 1028,0 hPa 0,0 mm 6,2 km/h (2 Bft) NO 45 17,3 C 9,8 km/h (2 Bft)
03.07.2015 17:25 27,8 C 29,6 C 50 % 1028,0 hPa 0,0 mm 6,5 km/h (2 Bft) NO 45 16,4 C 16,1 km/h (3 Bft)
03.07.2015 17:30 27,8 C 29,3 C 49 % 1028,0 hPa 0,0 mm 8,5 km/h (2 Bft) N-NO 22 16,1 C 16,3 km/h (3 Bft)
03.07.2015 17:35 27,8 C 29,3 C 49 % 1027,6 hPa 0,0 mm 8,3 km/h (2 Bft) O-NO 67 16,1 C 7,8 km/h (2 Bft)
03.07.2015 17:40 27,9 C 29,2 C 49 % 1027,6 hPa 0,0 mm 7,5 km/h (2 Bft) N-NW 337 16,2 C 8,3 km/h (2 Bft)
03.07.2015 17:45 27,8 C 29,1 C 49 % 1027,6 hPa 0,0 mm 6,5 km/h (2 Bft) N-NO 22 16,1 C 11,4 km/h (2 Bft)
03.07.2015 17:50 27,9 C 29,1 C 48 % 1027,6 hPa 0,0 mm 7,0 km/h (2 Bft) NO 45 15,9 C 8,8 km/h (2 Bft)
03.07.2015 17:55 27,9 C 29,0 C 48 % 1027,4 hPa 0,0 mm 8,3 km/h (2 Bft) N-NO 22 15,9 C 10,1 km/h (2 Bft)
03.07.2015 18:00 27,7 C 28,9 C 49 % 1027,4 hPa 0,0 mm 6,7 km/h (2 Bft) O-NO 67 16,0 C 6,2 km/h (2 Bft)
03.07.2015 18:05 27,6 C 29,0 C 49 % 1027,4 hPa 0,0 mm 4,1 km/h (1 Bft) N-NO 22 15,9 C 8,3 km/h (2 Bft)
03.07.2015 18:10 27,5 C 29,0 C 49 % 1027,4 hPa 0,0 mm 2,6 km/h (1 Bft) NO 45 15,8 C 0,0 km/h (0 Bft)
03.07.2015 18:15 27,5 C 29,0 C 49 % 1027,9 hPa 0,0 mm 3,1 km/h (1 Bft) N-NO 22 15,8 C 6,0 km/h (2 Bft)
03.07.2015 18:20 27,3 C 28,8 C 50 % 1027,9 hPa 0,0 mm 4,1 km/h (1 Bft) W-NW 292 15,9 C 9,3 km/h (2 Bft)
03.07.2015 18:25 27,3 C 28,6 C 49 % 1027,9 hPa 0,0 mm 6,0 km/h (2 Bft) NO 45 15,6 C 8,8 km/h (2 Bft)
03.07.2015 18:30 27,3 C 28,5 C 48 % 1027,9 hPa 0,0 mm 6,2 km/h (2 Bft) NO 45 15,3 C 6,7 km/h (2 Bft)
03.07.2015 18:35 27,2 C 28,9 C 49 % 1028,1 hPa 0,0 mm 4,7 km/h (1 Bft) O-SO 112 15,5 C 2,8 km/h (1 Bft)
03.07.2015 18:40 26,7 C 29,5 C 49 % 1028,1 hPa 0,0 mm 3,4 km/h (1 Bft) O-NO 67 15,1 C 0,0 km/h (0 Bft)
03.07.2015 18:45 26,6 C 29,6 C 50 % 1028,1 hPa 0,0 mm 2,8 km/h (1 Bft) O-NO 67 15,3 C 0,0 km/h (0 Bft)
03.07.2015 18:50 26,7 C 30,8 C 50 % 1028,1 hPa 0,0 mm 0,8 km/h (0 Bft) NO 45 15,4 C 0,0 km/h (0 Bft)
03.07.2015 18:55 26,8 C 31,6 C 50 % 1028,1 hPa 0,0 mm 0,3 km/h (0 Bft) NO 45 15,5 C 0,0 km/h (0 Bft)
03.07.2015 19:00 26,8 C 32,5 C 50 % 1028,1 hPa 0,0 mm 1,0 km/h (0 Bft) O-NO 67 15,5 C 0,0 km/h (0 Bft)
03.07.2015 19:05 26,8 C 32,5 C 51 % 1028,1 hPa 0,0 mm 1,3 km/h (1 Bft) O-NO 67 15,8 C 0,0 km/h (0 Bft)
03.07.2015 19:10 26,9 C 32,5 C 50 % 1028,1 hPa 0,0 mm 2,6 km/h (1 Bft) O-SO 112 15,6 C 4,7 km/h (1 Bft)
03.07.2015 19:13 27,0 C 32,2 C 50 % 1027,9 hPa 0,0 mm 2,6 km/h (1 Bft) O-SO 112 15,7 C 0,0 km/h (0 Bft)
03.07.2015 19:15 27,0 C 32,2 C 50 % 1027,9 hPa 0,0 mm 2,6 km/h (1 Bft) O-SO 112 15,7 C 0,0 km/h (0 Bft)
03.07.2015 19:20 27,0 C 32,5 C 50 % 1027,9 hPa 0,0 mm 1,0 km/h (0 Bft) O 90 15,7 C 0,0 km/h (0 Bft)
03.07.2015 19:25 26,9 C 32,5 C 51 % 1027,9 hPa 0,0 mm 0,3 km/h (0 Bft) O-NO 67 15,9 C 0,0 km/h (0 Bft)
03.07.2015 19:30 26,7 C 32,5 C 51 % 1027,9 hPa 0,0 mm 0,0 km/h (0 Bft) O-SO 112 15,7 C 0,0 km/h (0 Bft)
03.07.2015 19:35 26,7 C 32,3 C 51 % 1027,8 hPa 0,0 mm 0,0 km/h (0 Bft) O-NO 67 15,7 C 0,0 km/h (0 Bft)
03.07.2015 19:40 26,6 C 31,5 C 53 % 1027,8 hPa 0,0 mm 0,0 km/h (0 Bft) O-NO 67 16,2 C 0,0 km/h (0 Bft)
03.07.2015 19:45 26,4 C 31,2 C 53 % 1027,8 hPa 0,0 mm 0,3 km/h (0 Bft) O-SO 112 16,0 C 0,0 km/h (0 Bft)
03.07.2015 19:50 26,0 C 30,0 C 54 % 1027,8 hPa 0,0 mm 0,0 km/h (0 Bft) SO 135 16,0 C 0,0 km/h (0 Bft)
03.07.2015 19:55 25,7 C 29,2 C 56 % 1027,8 hPa 0,0 mm 0,0 km/h (0 Bft) O-SO 112 16,2 C 0,0 km/h (0 Bft)
03.07.2015 20:00 25,3 C 27,8 C 57 % 1027,8 hPa 0,0 mm 0,0 km/h (0 Bft) SO 135 16,2 C 0,0 km/h (0 Bft)
03.07.2015 20:05 24,9 C 26,9 C 57 % 1027,8 hPa 0,0 mm 0,0 km/h (0 Bft) SO 135 15,8 C 0,0 km/h (0 Bft)
03.07.2015 20:10 24,1 C 25,8 C 60 % 1027,8 hPa 0,0 mm 0,0 km/h (0 Bft) SO 135 15,8 C 0,0 km/h (0 Bft)
03.07.2015 20:15 23,5 C 25,3 C 62 % 1027,7 hPa 0,0 mm 0,0 km/h (0 Bft) SO 135 15,8 C 0,0 km/h (0 Bft)
03.07.2015 20:20 23,1 C 24,7 C 63 % 1027,7 hPa 0,0 mm 0,0 km/h (0 Bft) S-SO 157 15,7 C 0,0 km/h (0 Bft)
03.07.2015 20:25 23,2 C 24,4 C 62 % 1027,7 hPa 0,0 mm 0,0 km/h (0 Bft) S-SO 157 15,5 C 0,0 km/h (0 Bft)
03.07.2015 20:30 22,5 C 23,7 C 64 % 1027,7 hPa 0,0 mm 0,0 km/h (0 Bft) S-SO 157 15,3 C 0,0 km/h (0 Bft)
03.07.2015 20:35 22,3 C 23,2 C 65 % 1027,7 hPa 0,0 mm 0,0 km/h (0 Bft) S-SO 157 15,4 C 0,0 km/h (0 Bft)
03.07.2015 20:40 21,9 C 22,5 C 68 % 1027,7 hPa 0,0 mm 0,3 km/h (0 Bft) S 180 15,7 C 0,0 km/h (0 Bft)
03.07.2015 20:45 21,6 C 22,3 C 69 % 1027,7 hPa 0,0 mm 0,3 km/h (0 Bft) S 180 15,7 C 0,0 km/h (0 Bft)
03.07.2015 20:50 21,9 C 22,3 C 69 % 1027,7 hPa 0,0 mm 2,1 km/h (1 Bft) S-SO 157 15,9 C 4,9 km/h (1 Bft)
03.07.2015 20:55 22,1 C 22,2 C 68 % 1027,4 hPa 0,0 mm 3,1 km/h (1 Bft) S-SO 157 15,9 C 2,6 km/h (1 Bft)
03.07.2015 21:00 21,7 C 22,2 C 69 % 1027,4 hPa 0,0 mm 3,6 km/h (1 Bft) S-SO 157 15,8 C 4,1 km/h (1 Bft)
03.07.2015 21:05 21,4 C 22,0 C 69 % 1027,4 hPa 0,0 mm 3,4 km/h (1 Bft) S-SO 157 15,5 C 2,8 km/h (1 Bft)
03.07.2015 21:10 21,2 C 21,8 C 69 % 1027,4 hPa 0,0 mm 2,8 km/h (1 Bft) S-SO 157 15,3 C 3,1 km/h (1 Bft)
03.07.2015 21:15 20,7 C 21,6 C 70 % 1027,2 hPa 0,0 mm 2,1 km/h (1 Bft) SO 135 15,0 C 0,0 km/h (0 Bft)
03.07.2015 21:20 20,0 C 20,8 C 71 % 1027,2 hPa 0,0 mm 0,8 km/h (0 Bft) S 180 14,6 C 2,6 km/h (1 Bft)
03.07.2015 21:25 20,0 C 20,6 C 73 % 1027,2 hPa 0,0 mm 1,3 km/h (1 Bft) S 180 15,0 C 4,4 km/h (1 Bft)
03.07.2015 21:30 20,1 C 20,4 C 73 % 1027,2 hPa 0,0 mm 1,3 km/h (1 Bft) S 180 15,1 C 0,0 km/h (0 Bft)
03.07.2015 21:35 20,2 C 20,4 C 73 % 1027,5 hPa 0,0 mm 0,5 km/h (0 Bft) S 180 15,2 C 2,6 km/h (1 Bft)
03.07.2015 21:40 19,7 C 20,1 C 73 % 1027,5 hPa 0,0 mm 0,3 km/h (0 Bft) S-SO 157 14,7 C 0,0 km/h (0 Bft)
03.07.2015 21:45 19,6 C 20,0 C 73 % 1027,5 hPa 0,0 mm 0,3 km/h (0 Bft) SO 135 14,6 C 0,0 km/h (0 Bft)
03.07.2015 21:50 19,3 C 19,4 C 73 % 1027,5 hPa 0,0 mm 0,0 km/h (0 Bft) S-SO 157 14,3 C 0,0 km/h (0 Bft)
03.07.2015 21:55 19,3 C 19,3 C 72 % 1027,2 hPa 0,0 mm 0,0 km/h (0 Bft) SO 135 14,1 C 0,0 km/h (0 Bft)
03.07.2015 22:00 19,5 C 19,5 C 71 % 1027,2 hPa 0,0 mm 0,0 km/h (0 Bft) S 180 14,1 C 0,0 km/h (0 Bft)
03.07.2015 22:05 19,5 C 19,5 C 71 % 1027,2 hPa 0,0 mm 0,0 km/h (0 Bft) S 180 14,1 C 0,0 km/h (0 Bft)
03.07.2015 22:10 19,4 C 19,3 C 70 % 1027,2 hPa 0,0 mm 0,0 km/h (0 Bft) S 180 13,8 C 0,0 km/h (0 Bft)
03.07.2015 22:15 19,0 C 19,0 C 70 % 1027,5 hPa 0,0 mm 0,0 km/h (0 Bft) S 180 13,4 C 0,0 km/h (0 Bft)
03.07.2015 22:20 18,6 C 18,6 C 72 % 1027,5 hPa 0,0 mm 0,0 km/h (0 Bft) O 90 13,4 C 0,0 km/h (0 Bft)
03.07.2015 22:25 18,4 C 18,4 C 72 % 1027,5 hPa 0,0 mm 0,0 km/h (0 Bft) O 90 13,3 C 0,0 km/h (0 Bft)
03.07.2015 22:30 18,2 C 18,1 C 72 % 1027,5 hPa 0,0 mm 0,0 km/h (0 Bft) O 90 13,1 C 0,0 km/h (0 Bft)
03.07.2015 22:35 18,1 C 18,0 C 72 % 1027,6 hPa 0,0 mm 0,0 km/h (0 Bft) O 90 13,0 C 0,0 km/h (0 Bft)
03.07.2015 22:40 18,2 C 18,1 C 73 % 1027,6 hPa 0,0 mm 0,0 km/h (0 Bft) O 90 13,3 C 0,0 km/h (0 Bft)
03.07.2015 22:45 18,2 C 18,0 C 72 % 1027,6 hPa 0,0 mm 0,0 km/h (0 Bft) O 90 13,1 C 0,0 km/h (0 Bft)
03.07.2015 22:50 18,1 C 18,0 C 72 % 1027,6 hPa 0,0 mm 0,0 km/h (0 Bft) NW 315 13,0 C 0,0 km/h (0 Bft)
03.07.2015 22:55 17,9 C 17,8 C 72 % 1027,5 hPa 0,0 mm 0,0 km/h (0 Bft) NW 315 12,8 C 0,0 km/h (0 Bft)
03.07.2015 23:00 17,8 C 17,7 C 73 % 1027,5 hPa 0,0 mm 0,0 km/h (0 Bft) N-NO 22 12,9 C 0,0 km/h (0 Bft)
03.07.2015 23:05 17,6 C 17,5 C 74 % 1027,5 hPa 0,0 mm 0,0 km/h (0 Bft) NW 315 12,9 C 0,0 km/h (0 Bft)
03.07.2015 23:10 17,6 C 17,5 C 74 % 1027,5 hPa 0,0 mm 0,0 km/h (0 Bft) NW 315 12,9 C 0,0 km/h (0 Bft)
03.07.2015 23:15 17,6 C 17,5 C 74 % 1027,3 hPa 0,0 mm 0,3 km/h (0 Bft) W-NW 292 12,9 C 2,6 km/h (1 Bft)
03.07.2015 23:20 17,7 C 17,5 C 74 % 1027,3 hPa 0,0 mm 0,3 km/h (0 Bft) W 270 13,0 C 0,0 km/h (0 Bft)
03.07.2015 23:25 17,5 C 17,3 C 75 % 1027,3 hPa 0,0 mm 0,3 km/h (0 Bft) W-NW 292 13,0 C 0,0 km/h (0 Bft)
03.07.2015 23:30 17,5 C 17,3 C 76 % 1027,3 hPa 0,0 mm 0,0 km/h (0 Bft) SW 225 13,2 C 0,0 km/h (0 Bft)
03.07.2015 23:35 17,7 C 17,4 C 77 % 1027,2 hPa 0,0 mm 0,0 km/h (0 Bft) S-SW 202 13,6 C 0,0 km/h (0 Bft)
03.07.2015 23:40 17,7 C 17,4 C 76 % 1027,2 hPa 0,0 mm 0,0 km/h (0 Bft) SW 225 13,4 C 0,0 km/h (0 Bft)
03.07.2015 23:45 17,7 C 17,4 C 76 % 1027,2 hPa 0,0 mm 0,0 km/h (0 Bft) SW 225 13,4 C 0,0 km/h (0 Bft)
03.07.2015 23:50 17,5 C 17,3 C 75 % 1027,2 hPa 0,0 mm 0,0 km/h (0 Bft) W-SW 247 13,0 C 0,0 km/h (0 Bft)
03.07.2015 23:55 17,5 C 17,3 C 75 % 1027,1 hPa 0,0 mm 0,0 km/h (0 Bft) W-SW 247 13,0 C 0,0 km/h (0 Bft)
_ Min-Zeit 04:00 03:50 16:00 04:10 - 23:55 - - 05:15 23:55
Minimum _ 14,7 C 14,5 C 43 % 1026,3 hPa - 0,0 km/h (0 Bft) - - 11,4 C 0,0 km/h (0 Bft)
_ Max-Zeit 15:55 16:10 11:25 11:10 10:10 13:15 - - 14:55 13:20
Maximum _ 29,7 C 35,8 C 87 % 1030,7 hPa 1,4 mm 14,0 km/h
S (3 Bft)
- - 19,0 C 25,6 km/h
S (4 Bft)
Durchschnitt _ 21,2 C 23,2 C 69 % 1027,7 hPa #3,4 mm 1,7 km/h (1 Bft) N-NO - 14,9 C 2,6 km/h (1 Bft)